Location: Ostrava
(49.8330°N, 18.2830°E)
Time: 17:25:27
(UTC+02:00)

Cosmos 2221 - Visible Passes

Search period start: 20 August 2017 00:00
Search period end: 30 August 2017 00:00
Orbit: 593 x 618 km, 82.5° (Epoch: 19 August)

Date Brightness Start Highest point End Pass type
(mag) Time Alt. Az. Time Alt. Az. Time Alt. Az.
20 Aug 5.1 01:49:51 10° E 01:51:17 12° E 01:52:52 10° ENE visible
20 Aug 2.4 03:26:44 41° SSW 03:28:11 82° W 03:32:32 10° N visible
20 Aug 4.7 05:05:16 10° WNW 05:06:32 11° WNW 05:07:48 10° NW visible
21 Aug 4.6 02:03:06 17° ESE 02:04:04 18° E 02:07:03 10° NE visible
21 Aug 2.8 03:39:59 37° SW 03:41:16 51° WNW 03:45:31 10° N visible
22 Aug 4.0 02:16:19 27° ESE 02:16:55 28° E 02:20:37 10° NNE visible
22 Aug 3.4 03:53:12 28° WSW 03:54:25 33° WNW 03:58:21 10° N visible
23 Aug 3.3 02:29:32 43° ESE 02:29:50 44° E 02:33:56 10° NNE visible
23 Aug 4.0 04:06:25 19° W 04:07:38 22° WNW 04:11:00 10° NNW visible
24 Aug 2.5 02:42:43 71° ESE 02:42:48 72° E 02:47:06 10° NNE visible
24 Aug 4.5 04:19:36 13° W 04:20:55 15° WNW 04:23:22 10° NNW visible
25 Aug 5.0 01:19:01 13° E 01:19:01 13° E 01:20:55 10° NE visible
25 Aug 2.5 02:55:54 72° WNW 02:55:54 72° WNW 03:00:09 10° N visible
26 Aug 4.6 01:32:11 20° ENE 01:32:11 20° ENE 01:34:51 10° NE visible
26 Aug 3.0 03:09:04 44° WNW 03:09:04 44° WNW 03:13:04 10° N visible
27 Aug 4.1 01:45:20 29° ENE 01:45:20 29° ENE 01:48:20 10° NNE visible
27 Aug 3.7 03:22:12 29° WNW 03:22:12 29° WNW 03:25:52 10° N visible
28 Aug 3.6 01:58:28 40° NE 01:58:28 40° NE 02:01:36 10° NNE visible
28 Aug 4.2 03:35:20 19° WNW 03:35:20 19° WNW 03:38:28 10° NNW visible
29 Aug 3.4 02:11:35 48° NNE 02:11:35 48° NNE 02:14:44 10° NNE visible
29 Aug 4.7 03:48:27 13° WNW 03:48:37 13° WNW 03:50:39 10° NNW visible
